M0NPQ Weather Reports


Display with metric or nautical units.
time (UTC)temp
F
wind
direction
speed
MPH
gust
MPH
rain 1hr
in
rain 24hr
in
rain mn
in
humidity
%
barometer
mb
20260507100003 54 291 0.0 2.0 0.00 0.00 0.00 64 1017.1
20260507095403 54 27 0.0 2.0 0.00 0.00 0.00 64 1017.0
20260507094503 54 110 0.0 2.0 0.00 0.00 0.00 65 1017.0
20260507093603 53 105 0.0 2.0 0.00 0.00 0.00 65 1017.2
20260507092703 53 251 0.0 2.0 0.00 0.00 0.00 66 1017.1
20260507091803 53 257 0.0 2.0 0.00 0.00 0.00 66 1016.9
20260507090903 53 251 0.0 2.0 0.00 0.00 0.00 65 1017.1
20260507090004 53 272 0.0 2.0 0.00 0.00 0.00 65 1016.9
20260507085616 54 266 0.0 2.0 0.00 0.00 0.00 64 1016.8
20260507084503 54 252 0.0 2.0 0.00 0.00 0.00 64 1016.8
20260507083603 53 261 0.0 1.0 0.00 0.00 0.00 66 1016.7
20260507082704 53 101 0.0 2.0 0.00 0.00 0.00 65 1016.7
20260507081804 53 208 0.0 2.0 0.00 0.00 0.00 66 1016.6
20260507080903 52 265 0.0 1.0 0.00 0.00 0.00 67 1016.5
20260507080005 52 266 0.0 1.0 0.00 0.00 0.00 68 1016.5
20260507075403 52 0 0.0 0.0 0.00 0.00 0.00 69 1016.5
20260507074503 52 272 0.0 1.0 0.00 0.00 0.00 68 1016.5
20260507073603 52 0 0.0 0.0 0.00 0.00 0.00 67 1016.3
20260507072705 52 0 0.0 0.0 0.00 0.00 0.00 68 1016.3
20260507071803 51 0 0.0 0.0 0.00 0.00 0.00 67 1016.1
20260507070903 51 265 0.0 1.0 0.00 0.00 0.00 67 1016.1
20260507070005 51 11 0.0 1.0 0.00 0.00 0.00 68 1016.2
20260507065403 51 282 0.0 1.0 0.00 0.00 0.00 68 1016.3
20260507064719 51 86 0.0 1.0 0.00 0.00 0.00 69 1016.1
20260507063603 51 0 0.0 0.0 0.00 0.00 0.00 69 1016.1
20260507062703 50 261 0.0 2.0 0.00 0.00 0.00 70 1016.2
20260507062017 50 209 0.0 2.0 0.00 0.00 0.00 71 1016.1
20260507060903 50 241 0.0 1.0 0.00 0.00 0.00 70 1015.9
20260507060004 50 0 0.0 0.0 0.00 0.00 0.00 71 1016.0
20260507055404 49 233 0.0 1.0 0.00 0.00 0.00 72 1015.9
20260507054505 49 0 0.0 0.0 0.00 0.00 0.00 72 1015.9
20260507053603 49 0 0.0 0.0 0.00 0.00 0.00 73 1016.0
20260507052703 49 0 0.0 0.0 0.00 0.00 0.00 73 1015.9
20260507051803 49 0 0.0 0.0 0.00 0.00 0.00 73 1015.8
20260507050903 49 0 0.0 0.0 0.00 0.00 0.00 73 1015.7
20260507050217 49 0 0.0 0.0 0.00 0.00 0.00 73 1015.9
20260507045403 49 0 0.0 0.0 0.00 0.00 0.00 73 1015.7
20260507044503 49 0 0.0 0.0 0.00 0.00 0.00 74 1015.6
20260507043603 48 0 0.0 0.0 0.00 0.00 0.00 74 1015.5
20260507042705 48 0 0.0 0.0 0.00 0.00 0.00 74 1015.5
20260507041805 48 0 0.0 0.0 0.00 0.00 0.00 74 1015.4
20260507040903 48 262 0.0 1.0 0.00 0.00 0.00 74 1015.3
20260507040005 48 0 0.0 0.0 0.00 0.00 0.00 74 1015.3
20260507035403 48 249 0.0 1.0 0.00 0.00 0.00 74 1015.3
20260507034503 48 0 0.0 0.0 0.00 0.00 0.00 73 1015.1
20260507033603 48 0 0.0 0.0 0.00 0.00 0.00 73 1014.9
20260507032704 48 0 0.0 0.0 0.00 0.00 0.00 73 1015.1
20260507032018 48 0 0.0 0.0 0.00 0.00 0.00 73 1015.1
20260507030903 48 0 0.0 1.0 0.00 0.00 0.00 72 1015.0
20260507030003 49 122 0.0 1.0 0.00 0.00 0.00 72 1014.9
20260507025404 49 228 0.0 1.0 0.00 0.00 0.00 72 1015.0
20260507024503 49 228 0.0 1.0 0.00 0.00 0.00 72 1015.2
20260507023603 49 0 0.0 0.0 0.00 0.00 0.00 73 1015.2
20260507022704 49 100 0.0 1.0 0.00 0.00 0.00 72 1015.1
20260507021805 49 0 0.0 0.0 0.00 0.00 0.00 72 1015.1
20260507020903 49 0 0.0 0.0 0.00 0.00 0.00 72 1015.2
20260507020218 49 0 0.0 0.0 0.00 0.00 0.00 72 1015.2
20260507015403 49 111 0.0 1.0 0.00 0.00 0.00 72 1015.2
20260507014503 49 282 0.0 1.0 0.00 0.00 0.00 72 1014.8
20260507013816 49 268 0.0 1.0 0.00 0.00 0.00 72 1015.0
20260507012703 49 0 0.0 0.0 0.00 0.00 0.00 72 1015.1
20260507011804 49 0 0.0 0.0 0.00 0.00 0.00 72 1015.0
20260507010903 49 0 0.0 0.0 0.00 0.00 0.00 72 1015.1
20260507010003 49 0 0.0 0.0 0.00 0.00 0.00 72 1014.8
20260507005404 49 275 0.0 1.0 0.00 0.00 0.00 73 1014.9
20260507004717 49 0 0.0 0.0 0.00 0.00 0.00 73 1014.9
20260507003603 49 270 0.0 1.0 0.00 0.00 0.00 72 1014.9
20260507002703 49 269 0.0 1.0 0.00 0.00 0.00 72 1014.9
20260507001804 49 149 0.0 1.0 0.00 0.00 0.00 72 1014.9
20260507001118 49 320 0.0 1.0 0.00 0.00 0.00 73 1015.0
20260507000005 49 90 0.0 1.0 0.00 0.00 0.00 74 1015.1
20260506235405 49 283 0.0 1.0 0.00 0.00 0.00 74 1014.9
20260506234503 49 59 0.0 1.0 0.00 0.00 0.00 74 1014.9
20260506233603 50 1 0.0 2.0 0.00 0.00 0.00 74 1014.9
20260506232705 50 294 0.0 2.0 0.00 0.00 0.00 73 1015.0
20260506231803 50 286 0.0 2.0 0.00 0.00 0.00 73 1014.9
20260506231118 50 270 0.0 2.0 0.00 0.00 0.00 73 1015.0
20260506230219 50 235 0.0 1.0 0.00 0.00 0.00 73 1015.0
20260506225403 50 253 0.0 1.0 0.00 0.00 0.00 73 1015.0
20260506224503 50 265 0.0 1.0 0.00 0.00 0.00 73 1015.0
20260506223604 50 275 0.0 1.0 0.00 0.00 0.00 74 1014.9
20260506222703 50 0 0.0 0.0 0.00 0.00 0.00 74 1014.8
20260506221803 50 229 0.0 1.0 0.00 0.00 0.00 74 1014.9
20260506220903 50 245 0.0 1.0 0.00 0.00 0.00 73 1014.8
20260506220003 50 0 0.0 0.0 0.00 0.00 0.00 73 1014.8
20260506215403 50 0 0.0 0.0 0.00 0.00 0.00 73 1014.6
20260506214503 50 284 0.0 1.0 0.00 0.00 0.00 72 1014.6
20260506213817 50 290 0.0 1.0 0.00 0.00 0.00 72 1014.7
20260506212918 50 279 0.0 1.0 0.00 0.00 0.00 71 1014.5
20260506211803 50 310 0.0 2.0 0.00 0.00 0.00 71 1014.7
20260506210905 50 237 0.0 2.0 0.00 0.00 0.00 73 1014.5
20260506210005 50 269 0.0 1.0 0.00 0.00 0.00 72 1014.6
20260506205618 50 0 0.0 0.0 0.00 0.00 0.00 72 1014.4
20260506204503 51 131 0.0 1.0 0.00 0.00 0.00 73 1014.5
20260506203603 51 79 0.0 1.0 0.00 0.00 0.00 73 1014.5
20260506202704 51 79 0.0 1.0 0.00 0.00 0.00 72 1014.5
20260506201803 51 259 0.0 2.0 0.00 0.00 0.00 71 1014.4
20260506201116 51 260 0.0 1.0 0.00 0.00 0.00 70 1014.2
20260506200003 51 265 0.0 2.0 0.00 0.00 0.00 71 1014.3
20260506195403 51 273 0.0 2.0 0.00 0.00 0.00 71 1014.3
20260506194717 51 272 0.0 2.0 0.00 0.00 0.00 71 1014.2
20260506193605 51 265 0.0 1.0 0.00 0.00 0.00 71 1014.2
20260506192705 51 255 0.0 2.0 0.00 0.00 0.00 71 1014.3
20260506191804 51 286 0.0 1.0 0.00 0.00 0.00 71 1014.0
20260506190903 51 353 0.0 2.0 0.00 0.00 0.00 71 1013.8
20260506190003 51 249 0.0 2.0 0.00 0.00 0.00 71 1013.6
20260506185403 51 240 0.0 2.0 0.00 0.00 0.00 71 1013.6
20260506184503 51 254 0.0 2.0 0.00 0.00 0.00 72 1013.7
20260506183603 51 258 0.0 2.0 0.00 0.00 0.00 72 1013.5
20260506182705 52 267 0.0 2.0 0.00 0.00 0.00 72 1013.2
20260506181803 52 230 0.0 2.0 0.00 0.00 0.00 71 1013.4
20260506181118 52 240 0.0 2.0 0.00 0.00 0.00 71 1013.3
20260506180004 52 84 0.0 2.0 0.00 0.00 0.00 71 1013.0
20260506175403 52 291 0.0 1.0 0.00 0.00 0.00 71 1013.1
20260506174504 52 74 0.0 2.0 0.00 0.00 0.00 70 1013.0
20260506173605 53 45 0.0 1.0 0.00 0.00 0.00 70 1012.9
20260506172703 53 227 0.0 1.0 0.00 0.00 0.00 71 1012.8
20260506171805 53 264 0.0 3.0 0.00 0.00 0.00 70 1013.0
20260506171118 54 269 0.0 2.0 0.00 0.00 0.00 70 1012.7
20260506170003 54 69 0.0 2.0 0.00 0.00 0.00 69 1012.9
20260506165403 54 67 0.0 2.0 0.00 0.00 0.00 68 1012.8
20260506164503 55 68 0.0 2.0 0.00 0.00 0.00 67 1012.9
20260506163604 55 78 0.0 2.0 0.00 0.00 0.00 66 1012.9
20260506162703 55 94 0.0 3.0 0.00 0.00 0.00 67 1012.8
20260506161803 55 93 0.0 4.0 0.00 0.00 0.00 67 1012.6
20260506160903 55 57 0.0 4.0 0.00 0.00 0.00 68 1012.6
20260506160003 57 355 1.0 3.0 0.00 0.00 0.00 64 1012.7
20260506155405 58 68 1.0 4.0 0.00 0.00 0.00 62 1012.6
20260506154503 59 78 0.0 2.0 0.00 0.00 0.00 61 1012.8
20260506153603 59 69 1.0 2.0 0.00 0.00 0.00 63 1012.7
20260506152704 58 74 1.0 3.0 0.00 0.00 0.00 63 1012.6
20260506151803 58 17 0.0 2.0 0.00 0.00 0.00 61 1012.4
20260506150903 59 23 0.0 3.0 0.00 0.00 0.00 61 1012.6
20260506150005 58 288 1.0 6.0 0.00 0.00 0.00 63 1012.5
20260506145403 58 265 1.0 6.0 0.00 0.00 0.00 62 1012.6
20260506144503 59 303 0.0 3.0 0.00 0.00 0.00 62 1012.5
20260506143818 58 61 0.0 4.0 0.00 0.00 0.00 62 1012.7
20260506142703 58 203 0.0 3.0 0.00 0.00 0.00 59 1012.6
20260506141803 58 39 0.0 3.0 0.00 0.00 0.00 64 1012.6
20260506140904 58 73 0.0 2.0 0.00 0.00 0.00 64 1012.6
20260506140005 57 44 0.0 2.0 0.00 0.00 0.00 64 1012.4
20260506135403 57 54 0.0 4.0 0.00 0.00 0.00 65 1012.6
20260506134503 57 37 0.0 2.0 0.00 0.00 0.00 63 1012.7
20260506133818 57 252 0.0 2.0 0.00 0.00 0.00 63 1012.4
20260506132703 56 44 0.0 3.0 0.00 0.00 0.00 66 1012.6
20260506131803 56 70 0.0 2.0 0.00 0.00 0.00 67 1012.4
20260506130905 56 268 0.0 4.0 0.00 0.00 0.00 67 1012.3
20260506130003 56 153 0.0 2.0 0.00 0.00 0.00 67 1012.3
20260506125403 57 266 0.0 2.0 0.00 0.00 0.00 67 1012.2
20260506124503 56 299 0.0 2.0 0.00 0.00 0.00 68 1012.3
20260506123605 57 289 0.0 2.0 0.00 0.00 0.00 66 1012.2
20260506122703 57 251 0.0 2.0 0.00 0.00 0.00 65 1012.2
20260506121803 56 242 0.0 1.0 0.00 0.00 0.00 68 1012.3
20260506120904 55 265 0.0 2.0 0.00 0.00 0.00 69 1012.2
20260506120003 55 276 0.0 2.0 0.00 0.00 0.00 68 1012.0
20260506115403 56 282 0.0 2.0 0.00 0.00 0.00 67 1012.1
20260506114503 56 281 0.0 1.0 0.00 0.00 0.00 68 1012.1
20260506113603 56 81 0.0 2.0 0.00 0.00 0.00 67 1012.0
20260506112703 56 234 0.0 2.0 0.00 0.00 0.00 67 1012.1
20260506111803 56 86 0.0 2.0 0.00 0.00 0.00 67 1012.0
20260506110903 55 251 0.0 2.0 0.00 0.00 0.00 68 1012.0
20260506110216 55 278 0.0 2.0 0.00 0.00 0.00 69 1012.1
20260506105403 55 73 0.0 1.0 0.00 0.00 0.00 69 1011.9
20260506104505 54 294 0.0 2.0 0.00 0.00 0.00 71 1011.9
20260506103817 54 273 0.0 2.0 0.00 0.00 0.00 71 1012.1
20260506102705 54 267 0.0 2.0 0.00 0.00 0.00 71 1012.0
20260506101804 54 270 0.0 2.0 0.00 0.00 0.00 71 1012.0
20260506100903 54 280 0.0 2.0 0.00 0.00 0.00 71 1011.7